Location: St. Louis
(38.6270°N, 90.1994°W)
Time: 01:21:11
(UTC-06:00)

Transit 4A - Pass Details

Date: 03 December 2021
Orbit: 863 x 981 km, 66.8° (Epoch: 24 January)

Event Time Altitude Azimuth Distance (km) Brightness Sun altitude
Rises 05:44:08 0° 319° (NW) 3,635 - -14.8°
Reaches altitude 10° 05:47:03 10° 308° (NW) 2,701 - -14.3°
Exits shadow 05:49:15 19° 292° (WNW) 2,126 9.1 -13.9°
Maximum altitude 05:52:11 27° 253° (WSW) 1,786 8.9 -13.3°
Drops below altitude 10° 05:57:21 10° 199° (SSW) 2,721 10.3 -12.4°
Sets 06:00:19 0° 187° (S) 3,666 11.2 -11.8°
